{"data":{"norad_id":53399,"intl_designator":"2022-097M","name":"STARLINK-4528","alt_names":[],"object_type":"PAYLOAD","status":"ACTIVE","operator":null,"country":"US","launch_date":"2022-08-10","launch_site_code":"AFETR","launch_vehicle":null,"mission":null,"orbit_class":"UNKNOWN","rcs_meters":null,"size_class":null,"mass_kg":null,"dimensions":null,"purposes":["comms"],"wikipedia_slug":null,"has_3d_model":false,"image_url":null,"decayed_at":null,"tle_current":{"epoch":"2026-09-19T20:49:20.487072Z","epoch_age_seconds":129960,"freshness":"FRESH","line1":"1 53399U 22097M   26262.86759823  .00005754  00000+0  18137-3 0  9998","line2":"2 53399  53.1599 324.3519 0001108  70.7348 289.3774 15.34389076227938","mean_motion":15.34389076,"eccentricity":0.0001108,"inclination_deg":53.1599,"raan_deg":324.3519,"arg_perigee_deg":70.7348,"mean_anomaly_deg":289.3774,"bstar":0.00018137,"rev_number":22793,"period_min":93.84842622537,"perigee_km":461.97774013373,"apogee_km":463.493677526,"semimajor_km":6840.8727088299,"source":"CELESTRAK","updated_at":"2026-09-20T09:00:40.225214Z"}}}